{"data":{"norad_id":61918,"intl_designator":"2024-207G","name":"STARLINK-32555","alt_names":[],"object_type":"PAYLOAD","status":"ACTIVE","operator":null,"country":"US","launch_date":"2024-11-11","launch_site_code":"AFETR","launch_vehicle":null,"mission":null,"orbit_class":"UNKNOWN","rcs_meters":null,"size_class":null,"mass_kg":null,"dimensions":null,"purposes":["comms"],"wikipedia_slug":null,"has_3d_model":false,"image_url":null,"decayed_at":null,"tle_current":{"epoch":"2026-05-24T21:46:03.410688Z","epoch_age_seconds":97284,"freshness":"FRESH","line1":"1 61918U 24207G   26144.90698392  .00012950  00000+0  47898-3 0  9998","line2":"2 61918  43.0022 215.1890 0003431 268.1297  91.9161 15.27597736 86339","mean_motion":15.27597736,"eccentricity":0.0003431,"inclination_deg":43.0022,"raan_deg":215.189,"arg_perigee_deg":268.1297,"mean_anomaly_deg":91.9161,"bstar":0.00047898,"rev_number":8633,"period_min":94.265654240273,"perigee_km":480.64193386061,"apogee_km":485.35004331738,"semimajor_km":6861.132988589,"source":"CELESTRAK","updated_at":"2026-05-25T13:38:19.481242Z"}}}